Location: Atherton
(17.2661°S, 145.4859°E)
Time: 04:20:31
(UTC+10:00)

Hubble Space Telescope - Pass Details

Date: 09 February 2026
Orbit: 476 x 479 km, 28.5° (Epoch: 6 March)

Event Time Altitude Azimuth Distance (km) Brightness Sun altitude
Exits shadow 04:21:12 42° 82° (E) 688 1.6 -25.1°
Drops below altitude 10° 04:23:51 10° 71° (ENE) 1,647 3.8 -24.5°
Sets 04:26:03 0° 69° (ENE) 2,522 4.8 -24.0°
